{"data":{"norad_id":51733,"intl_designator":"2022-016V","name":"STARLINK-3525","alt_names":[],"object_type":"PAYLOAD","status":"ACTIVE","operator":null,"country":"US","launch_date":"2022-02-21","launch_site_code":"AFETR","launch_vehicle":null,"mission":null,"orbit_class":"UNKNOWN","rcs_meters":null,"size_class":null,"mass_kg":null,"dimensions":null,"purposes":["comms"],"wikipedia_slug":null,"has_3d_model":false,"image_url":null,"decayed_at":null,"tle_current":{"epoch":"2026-05-24T21:55:54.511104Z","epoch_age_seconds":78670,"freshness":"FRESH","line1":"1 51733U 22016V   26144.91382536  .00000080  00000+0  23129-4 0  9992","line2":"2 51733  53.2118 336.9468 0001323  82.9962 277.1180 15.08831882235072","mean_motion":15.08831882,"eccentricity":0.0001323,"inclination_deg":53.2118,"raan_deg":336.9468,"arg_perigee_deg":82.9962,"mean_anomaly_deg":277.118,"bstar":2.3129e-5,"rev_number":23507,"period_min":95.438068162454,"perigee_km":538.8529636954,"apogee_km":540.683441412,"semimajor_km":6917.9052025537,"source":"CELESTRAK","updated_at":"2026-05-25T13:38:16.923313Z"}}}